User: anonymous   Login
Location: Mentone
(34.5413°N, 85.5351°W)
Time: 07:57:38
(UTC-05:00)
Language:

Okean O Rocket - Orbit

View from above orbital plane
View from above orbital plane
View from above satellite
View from above satellite

Ground track
Ground track

The orbit data is extracted from the following two-line orbital elements,

1 25861U 99039B   17118.89216826 +.00000058 +00000-0 +15337-4 0  9998
2 25861 098.1007 089.8840 0014500 237.8358 144.3083 14.78405256958492
Epoch (UTC): 28 April 2017 21:24:43
Eccentricity: 0.0014500
inclination: 98.1007°
perigee height: 624 km
apogee height: 644 km
right ascension of ascending node: 89.8840°
argument of perigee: 237.8358°
revolutions per day: 14.78405256
mean anomaly at epoch: 144.3083°
orbit number at epoch: 95849

The dashed part of the orbit path shows where the satellite is in the earth's shadow,  

DLR